GW6147 Weather Reports


time (UTC)temp
C
wind
direction
speed
KPH
gust
KPH
rain 1hr
cm
rain 24hr
cm
rain mn
cm
humidity
%
barometer
mb
20260504141030 10 0.0 0.0 0.00 0.00 0.00 46 998.9
20260504140518 10 0.0 0.0 0.00 0.00 0.00 46 999.0
20260504130340 10 0.0 0.0 0.00 0.00 0.00 51 998.2
20260504120204 8 0.0 0.0 0.00 0.00 0.00 61 997.4
20260504110418 7 0.0 0.0 0.00 0.00 0.00 67 996.5
20260504100245 5 0.0 0.0 0.00 0.00 0.00 71 997.5
20260504090116 5 0.0 0.0 0.00 0.00 0.00 71 998.1
20260504081511 5 0.0 0.0 0.00 0.00 0.00 67 998.8
20260504081004 5 0.0 0.0 0.00 0.00 0.00 66 999.2
20260504080456 5 0.0 0.0 0.00 0.00 0.00 66 999.0
20260504070209 5 0.0 0.0 0.00 0.00 0.00 65 1000.2
20260504050429 6 0.0 0.0 0.00 0.00 0.00 66 1001.9
20260504045922 6 0.0 0.0 0.00 0.00 0.00 66 1002.1
20260504045415 6 0.0 0.0 0.00 0.00 0.00 63 1002.1
20260504044908 6 0.0 0.0 0.00 0.00 0.00 63 1001.9
20260504044401 6 0.0 0.0 0.00 0.00 0.00 63 1002.5
20260504043854 6 0.0 0.0 0.00 0.00 0.00 61 1002.2
20260504043347 6 0.0 0.0 0.00 0.00 0.00 60 1002.4
20260504042841 6 0.0 0.0 0.00 0.00 0.00 60 1002.2
20260504042333 6 0.0 0.0 0.00 0.00 0.00 59 1002.3
20260504041826 6 0.0 0.0 0.00 0.00 0.00 59 1002.5
20260504041314 6 0.0 0.0 0.00 0.00 0.00 60 1002.8
20260504040807 6 0.0 0.0 0.00 0.00 0.00 58 1002.6
20260504040301 6 0.0 0.0 0.00 0.00 0.00 57 1002.6
20260504035751 6 0.0 0.0 0.00 0.00 0.00 58 1003.0
20260504035243 6 0.0 0.0 0.00 0.00 0.00 56 1003.3
20260504034735 6 0.0 0.0 0.00 0.00 0.00 56 1003.1
20260504034228 6 0.0 0.0 0.00 0.00 0.00 54 1003.3
20260504033720 7 0.0 0.0 0.00 0.00 0.00 54 1003.1
20260504033213 7 0.0 0.0 0.00 0.00 0.00 53 1003.3
20260504032706 7 0.0 0.0 0.00 0.00 0.00 53 1003.5
20260504032159 7 0.0 0.0 0.00 0.00 0.00 52 1003.5
20260504031652 7 0.0 0.0 0.00 0.00 0.00 51 1003.4
20260504031145 7 0.0 0.0 0.00 0.00 0.00 51 1003.6
20260504030638 7 0.0 0.0 0.00 0.00 0.00 50 1003.5
20260504030131 8 0.0 0.0 0.00 0.00 0.00 49 1003.6
20260504025623 8 0.0 0.0 0.00 0.00 0.00 48 1003.7
20260504025116 8 0.0 0.0 0.00 0.00 0.00 48 1003.5
20260504024609 8 0.0 0.0 0.00 0.00 0.00 47 1003.5
20260504024102 8 0.0 0.0 0.00 0.00 0.00 46 1003.5
20260504023556 8 0.0 0.0 0.00 0.00 0.00 46 1003.8
20260504023049 8 0.0 0.0 0.00 0.00 0.00 45 1003.7
20260504022542 9 0.0 0.0 0.00 0.00 0.00 45 1003.6
20260504022034 9 0.0 0.0 0.00 0.00 0.00 43 1003.8
20260504021526 10 0.0 0.0 0.00 0.00 0.00 42 1003.9
20260504021019 10 0.0 0.0 0.00 0.00 0.00 42 1003.7
20260504020512 10 0.0 0.0 0.00 0.00 0.00 41 1004.0
20260504020004 10 0.0 0.0 0.00 0.00 0.00 41 1003.9
20260504015452 10 0.0 0.0 0.00 0.00 0.00 40 1003.8
20260504014945 10 0.0 0.0 0.00 0.00 0.00 40 1003.9
20260504014437 11 0.0 0.0 0.00 0.00 0.00 40 1003.6
20260504013921 11 0.0 0.0 0.00 0.00 0.00 39 1003.7
20260504013413 11 0.0 0.0 0.00 0.00 0.00 38 1003.6
20260504012907 11 0.0 0.0 0.00 0.00 0.00 37 1003.9
20260504012359 11 0.0 0.0 0.00 0.00 0.00 37 1003.8
20260504011851 12 0.0 0.0 0.00 0.00 0.00 36 1004.0
20260504011343 12 0.0 0.0 0.00 0.00 0.00 35 1004.1
20260504010836 12 0.0 0.0 0.00 0.00 0.00 34 1003.9
20260504010328 12 0.0 0.0 0.00 0.00 0.00 34 1004.2
20260504005821 13 0.0 0.0 0.00 0.00 0.00 33 1004.0
20260504005314 13 0.0 0.0 0.00 0.00 0.00 33 1003.9
20260504004807 13 0.0 0.0 0.00 0.00 0.00 32 1004.3
20260504004301 13 0.0 0.0 0.00 0.00 0.00 33 1003.9
20260504003753 13 0.0 0.0 0.00 0.00 0.00 33 1004.2
20260504003246 13 0.0 0.0 0.00 0.00 0.00 32 1004.3
20260504002739 13 0.0 0.0 0.00 0.00 0.00 31 1004.4
20260504002227 13 0.0 0.0 0.00 0.00 0.00 31 1004.3
20260504001721 14 0.0 0.0 0.00 0.00 0.00 31 1004.3
20260504001213 14 0.0 0.0 0.00 0.00 0.00 31 1004.3
20260504000705 14 0.0 0.0 0.00 0.00 0.00 30 1004.8
20260504000158 14 0.0 0.0 0.00 0.00 0.00 30 1004.7
20260503235652 14 0.0 0.0 0.00 0.00 0.00 29 1004.5
20260503235144 15 0.0 0.0 0.00 0.00 0.00 30 1004.6
20260503234637 14 0.0 0.0 0.00 0.00 0.00 28 1004.6
20260503234130 15 0.0 0.0 0.00 0.00 0.00 29 1004.5
20260503233623 15 0.0 0.0 0.00 0.00 0.00 29 1004.7
20260503233115 14 0.0 0.0 0.00 0.00 0.00 28 1004.8
20260503232608 15 0.0 0.0 0.00 0.00 0.00 29 1004.6
20260503232100 14 0.0 0.0 0.00 0.00 0.00 29 1004.4
20260503231553 14 0.0 0.0 0.00 0.00 0.00 29 1004.6
20260503231046 15 0.0 0.0 0.00 0.00 0.00 29 1004.6
20260503230538 15 0.0 0.0 0.00 0.00 0.00 29 1004.8
20260503225958 15 0.0 0.0 0.00 0.00 0.00 28 1005.0
20260503225452 15 0.0 0.0 0.00 0.00 0.00 28 1004.9
20260503224944 15 0.0 0.0 0.00 0.00 0.00 26 1004.9
20260503224436 15 0.0 0.0 0.00 0.00 0.00 26 1004.9
20260503223929 15 0.0 0.0 0.00 0.00 0.00 27 1005.0
20260503223419 15 0.0 0.0 0.00 0.00 0.00 27 1004.9
20260503222912 15 0.0 0.0 0.00 0.00 0.00 28 1004.7
20260503222404 15 0.0 0.0 0.00 0.00 0.00 28 1004.9
20260503221856 15 0.0 0.0 0.00 0.00 0.00 27 1004.7
20260503221349 15 0.0 0.0 0.00 0.00 0.00 27 1004.7
20260503220843 15 0.0 0.0 0.00 0.00 0.00 26 1004.9
20260503220334 15 0.0 0.0 0.00 0.00 0.00 27 1004.9
20260503215826 15 0.0 0.0 0.00 0.00 0.00 28 1004.8
20260503215319 15 0.0 0.0 0.00 0.00 0.00 27 1005.0
20260503214812 15 0.0 0.0 0.00 0.00 0.00 27 1004.9
20260503214304 15 0.0 0.0 0.00 0.00 0.00 26 1004.8
20260503213757 15 0.0 0.0 0.00 0.00 0.00 26 1004.8
20260503213248 15 0.0 0.0 0.00 0.00 0.00 26 1005.0
20260503212741 15 0.0 0.0 0.00 0.00 0.00 24 1004.8
20260503212233 15 0.0 0.0 0.00 0.00 0.00 24 1004.9
20260503211726 15 0.0 0.0 0.00 0.00 0.00 24 1005.3
20260503211219 15 0.0 0.0 0.00 0.00 0.00 28 1005.1
20260503210710 15 0.0 0.0 0.00 0.00 0.00 28 1005.2
20260503210203 15 0.0 0.0 0.00 0.00 0.00 26 1005.2
20260503205656 15 0.0 0.0 0.00 0.00 0.00 27 1005.5
20260503205149 15 0.0 0.0 0.00 0.00 0.00 27 1005.3
20260503204642 15 0.0 0.0 0.00 0.00 0.00 27 1005.5
20260503204135 15 0.0 0.0 0.00 0.00 0.00 26 1005.4
20260503203628 15 0.0 0.0 0.00 0.00 0.00 27 1005.6
20260503203121 15 0.0 0.0 0.00 0.00 0.00 29 1005.9
20260503202614 20 0.0 0.0 0.00 0.00 0.00 26 1005.7
20260503202107 15 0.0 0.0 0.00 0.00 0.00 29 1005.8
20260503201558 15 0.0 0.0 0.00 0.00 0.00 27 1005.8
20260503201052 15 0.0 0.0 0.00 0.00 0.00 27 1005.9
20260503200537 20 0.0 0.0 0.00 0.00 0.00 29 1006.1
20260503200025 20 0.0 0.0 0.00 0.00 0.00 29 1006.2
20260503195518 20 0.0 0.0 0.00 0.00 0.00 29 1006.2
20260503195011 20 0.0 0.0 0.00 0.00 0.00 30 1006.0
20260503194503 21 0.0 0.0 0.00 0.00 0.00 28 1006.4
20260503193957 20 0.0 0.0 0.00 0.00 0.00 29 1006.2
20260503193449 20 0.0 0.0 0.00 0.00 0.00 29 1006.5
20260503192942 20 0.0 0.0 0.00 0.00 0.00 30 1006.2
20260503192433 20 0.0 0.0 0.00 0.00 0.00 28 1006.3
20260503191926 20 0.0 0.0 0.00 0.00 0.00 28 1006.5
20260503191417 20 0.0 0.0 0.00 0.00 0.00 31 1006.3
20260503190910 20 0.0 0.0 0.00 0.00 0.00 29 1006.6
20260503190357 20 0.0 0.0 0.00 0.00 0.00 29 1006.4
20260503185850 20 0.0 0.0 0.00 0.00 0.00 30 1006.7
20260503185343 20 0.0 0.0 0.00 0.00 0.00 29 1006.7
20260503184835 20 0.0 0.0 0.00 0.00 0.00 28 1006.5
20260503184324 20 0.0 0.0 0.00 0.00 0.00 30 1006.8
20260503183817 19 0.0 0.0 0.00 0.00 0.00 29 1006.5
20260503183305 19 0.0 0.0 0.00 0.00 0.00 32 1006.9
20260503182757 20 0.0 0.0 0.00 0.00 0.00 29 1006.6
20260503182249 20 0.0 0.0 0.00 0.00 0.00 27 1006.9
20260503181740 20 0.0 0.0 0.00 0.00 0.00 30 1006.9
20260503181227 20 0.0 0.0 0.00 0.00 0.00 28 1006.9
20260503180719 20 0.0 0.0 0.00 0.00 0.00 30 1007.0
20260503180207 20 0.0 0.0 0.00 0.00 0.00 31 1007.1
20260503175700 20 0.0 0.0 0.00 0.00 0.00 30 1007.3
20260503175153 19 0.0 0.0 0.00 0.00 0.00 30 1007.2
20260503174646 20 0.0 0.0 0.00 0.00 0.00 31 1007.2
20260503174133 18 0.0 0.0 0.00 0.00 0.00 33 1007.2
20260503173626 18 0.0 0.0 0.00 0.00 0.00 32 1007.0
20260503173118 19 0.0 0.0 0.00 0.00 0.00 33 1007.3
20260503172606 18 0.0 0.0 0.00 0.00 0.00 31 1007.1
20260503172059 19 0.0 0.0 0.00 0.00 0.00 32 1007.3
20260503171552 19 0.0 0.0 0.00 0.00 0.00 34 1007.2
20260503171045 19 0.0 0.0 0.00 0.00 0.00 32 1007.0
20260503170532 18 0.0 0.0 0.00 0.00 0.00 33 1007.0
20260503150709 16 0.0 0.0 0.00 0.00 0.00 39 1006.6
20260503150200 16 0.0 0.0 0.00 0.00 0.00 40 1006.8